Home   Weather   Kolbotn   Past weeks

Flag for Norway Past Weather in Kolbotn, Norway — Yesterday and Last 2 Weeks

Now
57 °F

Mild.


Feels Like: 57 °F
Forecast: 50 / 66 °F
Wind: 4 mph from Southwest

Location: Hasle - MADIS Station

Current Time: Aug 17, 2017 at 12:02:13 am

Latest Report: Aug 16, 2017 at 11:40 pm


Visibility: N/A

Pressure: 29.42 "Hg

Humidity: 1%

Dew Point: -43 °F

Location of KolbotnLocation

Past Weather in Kolbotn — Graph

°F

Kolbotn Temperature Yesterday

Maximum temperature yesterday: 73 °F (at 3:23 pm)
Minimum temperature yesterday: 57 °F (at 7:36 am)
Average temperature yesterday: 64 °F

High & Low Weather Summary for the Past Weeks

 TemperatureHumidityPressure
High74 °F (Aug 10, 2:31 pm)49% (Aug 13, 7:58 pm)29.56 "Hg (Aug 13, 7:58 pm)
Low46 °F (Aug 14, 4:19 am)1% (Aug 1, 10:19 pm)28.76 "Hg (Aug 4, 4:36 pm)
Average60 °F10%29.21 "Hg
* Reported Aug 1 10:19 pm — Aug 16 9:10 pm, Kolbotn. Weather by CustomWeather, © 2017

Note: Actual official high and low records may vary slightly from our data, if they occured in-between our weather recording intervals... More about our weather records

Advertising

Kolbotn Weather History for the Previous 24 Hours

Scroll right to see more
 ConditionsComfort  
Time TempWeatherWind HumidityBarometerVisibility
9:10 pm
Wed, Aug 16
62 °FMild.No wind1%29.41 "HgN/A
8:09 pm65 °FMild.3 mphN/A29.39 "HgN/A
7:24 pm67 °FPleasantly warm.2 mph28%29.38 "HgN/A
6:24 pm70 °FWarm.4 mph46%29.38 "HgN/A
5:24 pm71 °FWarm.2 mph47%29.36 "HgN/A
4:53 pm70 °FWarm.2 mph46%29.37 "HgN/A
4:38 pm71 °FWarm.No wind46%29.36 "HgN/A
3:23 pm73 °FWarm.4 mph46%29.36 "HgN/A
2:23 pm70 °FWarm.2 mph45%29.36 "HgN/A
1:53 pm68 °FPleasantly warm.1 mph36%29.36 "HgN/A
1:37 pm67 °FPleasantly warm.1 mph33%29.36 "HgN/A
1:22 pm68 °FPleasantly warm.No wind36%29.36 "HgN/A
12:52 pm69 °FWarm.1 mphN/A29.34 "HgN/A
12:22 pm68 °FWarm.1 mphN/A29.34 "HgN/A
12:07 pm69 °FWarm.1 mphN/A29.34 "HgN/A
11:37 am67 °FPleasantly warm.3 mph1%29.33 "HgN/A
10:52 am64 °FMild.No wind1%29.33 "HgN/A
10:36 am64 °FMild.No wind1%29.32 "HgN/A
10:21 am63 °FMild.2 mph1%29.32 "HgN/A
7:51 am58 °FMild.No wind1%29.27 "HgN/A
7:36 am57 °FMild.No wind1%29.28 "HgN/A
6:20 am58 °FMild.No wind1%29.26 "HgN/A
5:50 am58 °FLight rain.No wind1%29.26 "HgN/A
5:35 am58 °FLight rain.No wind1%29.25 "HgN/A
5:22 am58 °FLight rain.No wind1%29.25 "HgN/A
5:05 am59 °FLight rain.No wind1%29.26 "HgN/A
4:35 am59 °FMild.1 mph1%29.26 "HgN/A
4:20 am58 °FMild.1 mph1%29.25 "HgN/A
2:04 am58 °FMild.No wind1%29.28 "HgN/A
1:19 am58 °FMild.4 mph1%29.28 "HgN/A
12:49 am58 °FMild.No wind1%29.30 "HgN/A
12:18 am58 °FMild.3 mph1%29.31 "HgN/A
Weather by CustomWeather, © 2017

See weather overviewHow to use our weather pages